Date String (YYYY-MM-DD hh:mm:ss) UTC,Instrument flags,absolute air pressure of the measurement (hPa),sample flow rate (lpm),inlet stack bypass flow (lpm),air temperature of the measurement (°C),ambient temperature measured by the external sensor (°C),aerosol sample conditioner tube jacket temperature (°C),OPC LED temperature (°C),internal box temperature (°C),relative humidity of the measurement (%),span deviation,mass concentration of particles derived from Lorenz-Mie calculation of OPC scattering (μg/m³),mass concentration of particles derived from Lorenz-Mie calculation of OPC scattering (μg/m³),mass concentration of particles derived from Lorenz-Mie calculation of OPC scattering (μg/m³)
DateTimeUTC,F1_M11,P_M11,Q1_M11,Q2_M11,T1_M11,T2_M11,T3_M11,T4_M11,T5_M11,U1_M11,ZSPAN_M11,X0_M11,X2_M11,X1_M11
2023-06-01 15:00:00,SystemResetWarning,0826.8,5.01,000.00,029.3,027.8,000.0,037.7,030.9,29.3,0001.5,0013.28,0005.56,0004.41
2023-06-01 15:01:00,SystemResetWarning,0826.8,4.99,000.00,029.3,027.8,000.0,037.7,030.9,29.6,0001.0,0013.13,0005.55,0004.42
2023-06-01 15:02:00,SystemResetWarning,0826.7,4.99,000.00,029.3,027.8,000.0,037.7,030.9,29.5,0000.8,0013.62,0005.58,0004.42
2023-06-01 15:03:00,SystemResetWarning,0826.8,5.02,000.00,029.3,027.8,000.0,037.7,030.9,29.6,0000.5,0013.61,0005.60,0004.42
2023-06-01 15:04:00,SystemResetWarning,0826.8,5.00,000.00,029.3,027.8,000.0,037.7,030.9,29.7,-000.5,0013.09,0005.63,0004.45
2023-06-01 15:05:00,SystemResetWarning,0826.8,4.99,000.00,029.3,027.8,000.0,037.7,030.9,29.9,-000.2,0012.45,0005.61,0004.45
2023-06-01 15:06:00,SystemResetWarning,0826.8,4.99,000.00,029.3,027.8,000.0,037.7,030.9,30.1,0000.4,0011.96,0005.60,0004.46
2023-06-01 15:07:00,SystemResetWarning,0826.8,5.01,000.00,029.3,027.8,000.0,037.7,031.0,29.8,-000.5,0011.87,0005.62,0004.49
2023-06-01 15:08:00,SystemResetWarning,0826.8,5.01,000.00,029.4,027.8,000.0,037.7,031.0,29.9,-000.2,0011.59,0005.65,0004.50
2023-06-01 15:09:00,SystemResetWarning,0826.8,4.99,000.00,029.4,027.8,000.0,037.7,031.0,30.1,0000.4,0012.30,0005.70,0004.49
2023-06-01 15:10:00,SystemResetWarning,0826.7,4.99,000.00,029.4,027.8,000.0,037.7,031.0,29.9,0000.6,0012.23,0005.68,0004.47
2023-06-01 15:11:00,SystemResetWarning,0826.7,5.00,000.00,029.4,027.8,000.0,037.7,031.0,29.7,0001.0,0012.03,0005.67,0004.48
2023-06-01 15:12:00,SystemResetWarning,0826.7,5.00,000.00,029.4,027.9,000.0,037.7,031.0,29.5,0000.7,0012.09,0005.67,0004.46
2023-06-01 15:13:00,SystemResetWarning,0826.6,5.00,000.00,029.4,027.9,000.0,037.7,031.0,29.1,0000.7,0011.59,0005.65,0004.46
2023-06-01 15:14:00,SystemResetWarning,0826.6,5.00,000.00,029.4,027.9,000.0,037.7,031.0,29.2,0000.5,0011.49,0005.60,0004.45
2023-06-01 15:15:00,SystemResetWarning,0826.7,5.00,000.00,029.4,027.9,000.0,037.7,031.0,29.0,0000.8,0011.72,0005.56,0004.43
2023-06-01 15:16:00,SystemResetWarning,0826.6,5.00,000.00,029.4,027.9,000.0,037.7,031.0,29.2,0000.8,0012.50,0005.52,0004.43
2023-06-01 15:17:00,SystemResetWarning,0826.7,5.00,000.00,029.4,027.9,000.0,037.7,031.0,29.3,0000.3,0012.83,0005.58,0004.43
2023-06-01 15:18:00,SystemResetWarning,0826.6,5.00,000.00,029.4,027.9,000.0,037.8,031.0,29.0,0000.0,0012.81,0005.60,0004.41
2023-06-01 15:19:00,SystemResetWarning,0826.6,5.00,000.00,029.4,027.9,000.0,037.8,031.0,29.1,0000.0,0012.60,0005.57,0004.41
2023-06-01 15:20:00,SystemResetWarning,0826.7,4.99,000.00,029.4,027.9,000.0,037.8,031.0,29.4,0001.0,0011.96,0005.56,0004.42
2023-06-01 15:21:00,SystemResetWarning,0826.6,5.00,000.00,029.4,027.9,000.0,037.8,031.0,29.5,0001.0,0011.74,0005.55,0004.43
2023-06-01 15:22:00,SystemResetWarning,0826.6,4.98,000.00,029.4,027.9,000.0,037.8,031.1,29.3,0001.2,0011.69,0005.56,0004.44
2023-06-01 15:23:00,SystemResetWarning,0826.6,4.99,000.00,029.4,027.9,000.0,037.8,031.1,29.6,0001.8,0011.86,0005.57,0004.47
2023-06-01 15:24:00,SystemResetWarning,0826.6,5.00,000.00,029.4,027.9,000.0,037.8,031.1,29.5,0002.4,0011.86,0005.58,0004.50
2023-06-01 15:25:00,SystemResetWarning,0826.6,5.01,000.00,029.4,027.9,000.0,037.8,031.0,29.5,0002.4,0012.05,0005.59,0004.52
2023-06-01 15:26:00,SystemResetWarning,0826.6,5.00,000.00,029.4,027.9,000.0,037.8,031.1,29.3,0002.4,0012.09,0005.64,0004.55
2023-06-01 15:27:00,SystemResetWarning,0826.6,4.99,000.00,029.4,027.9,000.0,037.8,031.1,29.4,0002.6,0011.78,0005.65,0004.57
2023-06-01 15:28:00,SystemResetWarning,0826.6,4.99,000.00,029.4,027.9,000.0,037.8,031.1,29.4,0002.7,0011.56,0005.59,0004.58
2023-06-01 15:29:00,SystemResetWarning,0826.6,5.01,000.00,029.5,027.9,000.0,037.8,031.1,29.7,0002.7,0011.10,0005.57,0004.59
2023-06-01 15:30:00,SystemResetWarning,0826.6,5.01,000.00,029.5,027.9,000.0,037.8,031.1,29.3,0002.5,0011.07,0005.62,0004.59
2023-06-01 15:31:00,SystemResetWarning,0826.5,4.99,000.00,029.5,027.9,000.0,037.8,031.1,29.5,0002.5,0011.05,0005.60,0004.59
2023-06-01 15:32:00,SystemResetWarning,0826.4,4.99,000.00,029.5,028.0,000.0,037.8,031.1,29.2,0002.9,0011.05,0005.59,0004.60
2023-06-01 15:33:00,SystemResetWarning,0826.4,4.99,000.00,029.5,028.0,000.0,037.8,031.1,29.5,0002.8,0011.07,0005.60,0004.61
2023-06-01 15:34:00,SystemResetWarning,0826.4,5.00,000.00,029.5,028.0,000.0,037.8,031.1,29.5,0002.5,0010.74,0005.58,0004.62
2023-06-01 15:35:00,SystemResetWarning,0826.3,5.00,000.00,029.5,028.0,000.0,037.8,031.1,29.3,0002.6,0011.39,0005.56,0004.61
2023-06-01 15:36:00,SystemResetWarning,0826.4,5.00,000.00,029.5,028.0,000.0,037.8,031.1,29.4,0003.0,0011.26,0005.52,0004.59
2023-06-01 15:37:00,SystemResetWarning,0826.4,5.00,000.00,029.5,028.0,000.0,037.9,031.1,29.4,0002.7,0010.92,0005.49,0004.59
2023-06-01 15:38:00,SystemResetWarning,0826.4,4.99,000.00,029.5,028.0,000.0,037.9,031.1,29.8,0002.3,0010.34,0005.49,0004.58
2023-06-01 15:39:00,SystemResetWarning,0826.4,5.00,000.00,029.5,028.0,000.0,037.9,031.1,30.3,0000.9,0010.34,0005.49,0004.58
2023-06-01 15:40:00,SystemResetWarning,0826.4,5.00,000.00,029.5,028.0,000.0,037.9,031.2,29.6,0000.5,0010.40,0005.48,0004.58
2023-06-01 15:41:00,SystemResetWarning,0826.3,5.01,000.00,029.5,028.0,000.0,037.9,031.2,29.5,0000.6,0010.22,0005.41,0004.58
2023-06-01 15:42:00,SystemResetWarning,0826.4,5.00,000.00,029.6,028.0,000.0,037.9,031.2,28.7,0003.0,0010.15,0005.39,0004.58
2023-06-01 15:43:00,SystemResetWarning,0826.4,4.99,000.00,029.6,028.0,000.0,037.9,031.2,28.9,0000.3,0010.89,0005.39,0004.57
2023-06-01 15:44:00,SystemResetWarning,0826.3,5.00,000.00,029.6,028.0,000.0,037.9,031.2,28.9,0003.0,0011.56,0005.37,0004.56
2023-06-01 15:45:00,SystemResetWarning,0826.3,5.00,000.00,029.6,028.0,000.0,037.9,031.2,29.1,0003.1,0011.64,0005.38,0004.57
2023-06-01 15:46:00,SystemResetWarning,0826.3,5.00,000.00,029.6,028.0,000.0,037.9,031.2,29.5,0002.7,0010.96,0005.41,0004.57
2023-06-01 15:47:00,SystemResetWarning,0826.3,5.01,000.00,029.6,028.1,000.0,037.9,031.2,29.7,0001.8,0010.89,0005.49,0004.60
2023-06-01 15:48:00,SystemResetWarning,0826.3,4.99,000.00,029.6,028.1,000.0,037.9,031.2,29.6,0002.2,0011.20,0005.54,0004.63
2023-06-01 15:49:00,SystemResetWarning,0826.3,5.00,000.00,029.6,028.1,000.0,037.9,031.2,29.2,0001.7,0012.22,0005.62,0004.66
2023-06-01 15:50:00,SystemResetWarning,0826.3,5.00,000.00,029.6,028.1,000.0,037.9,031.2,29.0,0001.9,0014.19,0005.75,0004.68
2023-06-01 15:51:00,SystemResetWarning,0826.2,4.99,000.00,029.6,028.1,000.0,038.0,031.2,29.2,0002.4,0015.01,0005.83,0004.70
2023-06-01 15:52:00,SystemResetWarning,0826.3,4.99,000.00,029.6,028.1,000.0,038.0,031.2,29.5,0002.6,0015.53,0005.88,0004.71
2023-06-01 15:53:00,SystemResetWarning,0826.3,5.01,000.00,029.7,028.1,000.0,038.0,031.3,29.7,0002.2,0016.35,0005.95,0004.73
2023-06-01 15:54:00,SystemResetWarning,0826.3,5.00,000.00,029.7,028.1,000.0,038.0,031.3,29.5,0002.3,0016.34,0006.02,0004.76
2023-06-01 15:55:00,SystemResetWarning,0826.3,5.00,000.00,029.7,028.1,000.0,038.0,031.3,29.6,0001.8,0015.97,0006.09,0004.76
2023-06-01 15:56:00,SystemResetWarning,0826.4,5.00,000.00,029.7,028.1,000.0,038.0,031.3,29.3,0002.0,0016.00,0006.10,0004.77
2023-06-01 15:57:00,SystemResetWarning,0826.4,5.00,000.00,029.7,028.1,000.0,038.0,031.3,29.1,0002.2,0016.37,0006.12,0004.77
2023-06-01 15:58:00,SystemResetWarning,0826.4,5.01,000.00,029.7,028.1,000.0,038.0,031.3,29.1,0001.9,0016.68,0006.15,0004.77
2023-06-01 15:59:00,SystemResetWarning,0826.3,5.00,000.00,029.7,028.1,000.0,038.0,031.3,29.3,0002.1,0016.52,0006.07,0004.74
